Location: Limoges
(45.8354°N, 1.2645°E)
Time: 17:11:28
(UTC+02:00)

Vanguard 2 Rocket - Pass Details

Date: 25 February 2024
Orbit: 555 x 3307 km, 32.9° (Epoch: 23 April)

Event Time Altitude Azimuth Distance (km) Brightness Sun altitude
Rises 18:56:16 0° 266° (W) 5,350 13.8 -4.5°
Reaches altitude 10° 18:59:29 10° 260° (W) 4,677 12.5 -5.0°
Maximum altitude 19:12:40 45° 194° (SSW) 3,597 10.1 -7.3°
Drops below altitude 10° 19:30:44 10° 130° (SE) 6,261 10.7 -10.4°
Sets 19:35:56 0° 125° (SE) 7,245 11.0 -11.3°
